Kosmos-1641

operational
NORAD ID: 15623 Int'l Des: 1985-023 Owner: GUKOS Country: SU
LEOCIRCULAR

关于 Kosmos-1641

正在加载描述...

实时位置

正在加载3D地球...

即将过境

高度历史

Altitude vs Time

uPlot chart will show altitude changes over time

两行轨道根数

1 15623U 85023G 26061.14720001 -.00000004 00000-0 69639-4 0 9997
2 15623 74.0595 339.5254 0042938 80.8771 347.4703 12.54560936875309
Epoch: Mar 2, 2026 • Age: 30 hours

当前状态

高度 1422.8 km
速度 7.17 km/s
星下点 57.93°N, 109.63°E
发射日期 Mar 21, 1985
运行时间 40.9 years
类型 other

技术详情

分类 Payload
质量 60.00 kg
干质量 60.00 kg
总质量 60.00 kg
长度 0.80 m
直径 0.80 m
跨度 0.80 m
形状 Poly
制造商 NPOPM
平台类型 Strela-1 11F625
阶段状态 In Orbit
所有者/国家 GUKOS/SU

大型星座

Loading constellations...